Location: Sobotiste
(48.7170°N, 17.4000°E)
Time: 22:01:40
(UTC+02:00)

Envisat - Visible Passes

Search period start: 19 October 2017 00:00
Search period end: 29 October 2017 00:00
Orbit: 764 x 766 km, 98.2° (Epoch: 19 October)

Date Brightness Start Highest point End Pass type
(mag) Time Alt. Az. Time Alt. Az. Time Alt. Az.
19 Oct 3.2 19:54:41 45° E 19:55:19 47° ENE 20:00:11 10° N visible
19 Oct 4.9 21:34:54 26° W 21:34:54 26° W 21:38:49 10° NW visible
20 Oct 4.0 19:17:42 23° E 19:18:53 25° ENE 19:22:58 10° N visible
20 Oct 3.7 20:57:55 52° W 20:57:55 52° W 21:02:35 10° NNW visible
21 Oct 4.7 18:40:43 11° ENE 18:42:38 14° NE 18:45:07 10° NNE visible
21 Oct 2.8 20:20:56 76° ENE 20:20:56 76° ENE 20:25:56 10° NNW visible
21 Oct 5.6 22:01:09 16° WNW 22:01:09 16° WNW 22:03:34 10° NW visible
22 Oct 3.4 19:43:57 38° ENE 19:44:16 39° ENE 19:48:57 10° N visible
22 Oct 4.6 21:24:10 31° WNW 21:24:10 31° WNW 21:27:55 10° NNW visible
23 Oct 4.2 19:06:58 20° ENE 19:07:53 21° ENE 19:11:38 10° NNE visible
23 Oct 3.5 20:47:11 58° WNW 20:47:11 58° WNW 20:51:32 10° NNW visible
24 Oct 4.8 18:30:08 10° ENE 18:31:43 11° NE 18:33:16 10° NNE visible
24 Oct 3.0 20:10:12 60° NE 20:10:12 60° NE 20:14:47 10° N visible
24 Oct 5.4 21:50:25 18° WNW 21:50:25 18° WNW 21:52:54 10° NW visible
25 Oct 3.7 19:33:12 32° ENE 19:33:14 32° ENE 19:37:43 10° N visible
25 Oct 4.5 21:13:26 34° WNW 21:13:26 34° WNW 21:16:57 10° NNW visible
26 Oct 4.4 18:56:13 17° ENE 18:56:55 18° ENE 19:00:13 10° NNE visible
26 Oct 3.5 20:36:26 55° NNW 20:36:26 55° NNW 20:40:27 10° NNW visible
26 Oct 6.0 22:16:39 11° WNW 22:16:39 11° WNW 22:16:59 10° WNW visible
27 Oct 3.3 19:59:27 47° NE 19:59:27 47° NE 20:03:36 10° N visible
27 Oct 5.3 21:39:39 21° WNW 21:39:39 21° WNW 21:42:06 10° NW visible
28 Oct 4.0 19:22:27 27° ENE 19:22:27 27° ENE 19:26:26 10° N visible
28 Oct 4.4 21:02:40 35° NW 21:02:40 35° NW 21:05:57 10° NNW visible
